Change the Weather History Date:

Thursday, November 9, 2006

  Actual Average Record
Temperature  
Mean Temperature 47 °F 47 °F  
Max Temperature 51 °F 52 °F 64 °F (1997)
Min Temperature 43 °F 41 °F 27 °F (1948)
Degree Days  
Heating Degree Days 18 18  
Month to date heating degree days 123 155  
Since 1 July heating degree days 685 752  
Cooling Degree Days 0 0  
Month to date cooling degree days 0 0  
Year to date cooling degree days 270 189  
Moisture  
Dew Point 42 °F    
Average Humidity 86    
Maximum Humidity 100    
Minimum Humidity 71    
Precipitation  
Precipitation 0.52 in 0.21 in 2.95 in (1990)
Month to date precipitation 8.88 1.82  
Year to date precipitation 34.37 27.39  
Snow  
Snow 0.00 in - - ()
Month to date snowfall  
Since 1 July snowfall  
Snow Depth -    
Sea Level Pressure  
Sea Level Pressure 30.04 in    
Wind  
Wind Speed 8 mph (SSW)    
Max Wind Speed 16 mph    
Max Gust Speed 20 mph    
Visibility 8 miles    
Events Rain    
T = Trace of Precipitation, MM = Missing Value Source: NWS Daily Summary

Daily Weather History Graph

Daily Weather History Graph

Search for Another Location

Airport or City:

Trip Planner

Search our weather history database for the weather conditions in past years. The results will help you decide how hot, cold, wet, or windy it might be!

Date:

Astronomy

Nov. 09, 2006 Rise Set
Actual Time 7:05 AM PST 4:40 PM PST
Civil Twilight 6:32 AM PST 5:13 PM PST
Nautical Twilight 5:55 AM PST 5:50 PM PST
Astronomical Twilight 5:19 AM PST 6:26 PM PST
Moon 7:59 PM PST (11/9) 12:12 PM PST (11/9)
Length of Visible Light 10h 41m
Length of Day
9h 35m
Waning Gibbous, 78% of the Moon is Illuminated
Nov 9
Waning Gibbous
Nov 12
Last Quarter
Nov 20
New
Nov 27
First Quarter
Dec 4
Full

Hourly Weather History & Observations

Time (PST) Temp. Windchill Dew Point Humidity Pressure Visibility Wind Dir Wind Speed Gust Speed Precip Events Conditions
12:31 AM 42.8 °F 38.0 °F 41.0 °F 93% 29.86 in 10.0 mi North 8.1 mph - 0.02 in Rain Light Rain
12:53 AM 43.0 °F 38.2 °F 41.0 °F 93% 29.88 in 10.0 mi North 8.1 mph - 0.02 in Rain Light Rain
1:53 AM 43.0 °F 39.5 °F 41.0 °F 93% 29.91 in 7.0 mi ENE 5.8 mph - 0.02 in Rain Light Rain
2:53 AM 43.0 °F 41.3 °F 42.1 °F 97% 29.92 in 3.0 mi NNW 3.5 mph - 0.09 in Rain Light Rain
3:09 AM 42.8 °F 41.1 °F 42.8 °F 100% 29.90 in 3.0 mi West 3.5 mph - 0.09 in Rain Light Rain
3:53 AM 42.8 °F - 42.8 °F 100% 29.91 in 4.0 mi Calm Calm - N/A Rain Light Rain
4:34 AM 42.8 °F - 42.8 °F 100% 29.92 in 10.0 mi Calm Calm - 0.02 in   Overcast
4:53 AM 43.0 °F 41.3 °F 42.1 °F 97% 29.96 in 6.0 mi NW 3.5 mph - 0.02 in   Overcast
5:43 AM 42.8 °F - 42.8 °F 100% 29.96 in 10.0 mi Calm Calm - N/A   Overcast
5:53 AM 43.0 °F - 41.0 °F 93% 29.99 in 8.0 mi Calm Calm - 0.00 in Rain Light Rain
6:49 AM 42.8 °F 39.3 °F 42.8 °F 100% 29.99 in 2.5 mi West 5.8 mph - 0.00 in Rain Light Rain
6:53 AM 43.0 °F 41.3 °F 42.1 °F 97% 30.02 in 2.5 mi West 3.5 mph - 0.01 in Rain Light Rain
7:44 AM 42.8 °F 39.3 °F 42.8 °F 100% 30.02 in 2.5 mi WSW 5.8 mph - 0.03 in Rain Light Rain
7:53 AM 43.0 °F 39.5 °F 42.1 °F 97% 30.05 in 2.5 mi WSW 5.8 mph - 0.03 in Rain Light Rain
8:13 AM 42.8 °F 38.0 °F 42.8 °F 100% 30.03 in 2.5 mi SW 8.1 mph - 0.01 in Rain Light Rain
8:37 AM 42.8 °F 38.6 °F 42.8 °F 100% 30.03 in 10.0 mi SW 6.9 mph - 0.01 in   Overcast
8:53 AM 44.1 °F 40.1 °F 42.1 °F 93% 30.06 in 10.0 mi WSW 6.9 mph - 0.01 in   Overcast
9:27 AM 44.6 °F 41.4 °F 42.8 °F 93% 30.05 in 10.0 mi WSW 5.8 mph - N/A   Overcast
9:53 AM 44.1 °F 39.0 °F 43.0 °F 96% 30.08 in 10.0 mi SSW 9.2 mph - N/A   Overcast
10:12 AM 44.6 °F 40.7 °F 42.8 °F 93% 30.06 in 10.0 mi SSW 6.9 mph - N/A   Overcast
10:37 AM 44.6 °F 39.2 °F 42.8 °F 93% 30.06 in 10.0 mi SW 10.4 mph - N/A   Overcast
10:53 AM 45.0 °F 40.1 °F 42.1 °F 90% 30.09 in 10.0 mi SSW 9.2 mph - N/A   Mostly Cloudy
11:53 AM 48.9 °F - 43.0 °F 80% 30.10 in 10.0 mi WSW 12.7 mph - N/A   Mostly Cloudy
12:44 PM 50.0 °F - 42.8 °F 76% 30.09 in 10.0 mi SW 10.4 mph - N/A   Mostly Cloudy
12:53 PM 50.0 °F - 43.0 °F 77% 30.11 in 10.0 mi SSW 12.7 mph - N/A   Mostly Cloudy
1:53 PM 48.0 °F - 39.9 °F 74% 30.12 in 10.0 mi SSW 11.5 mph - N/A   Mostly Cloudy
2:53 PM 48.2 °F - 39.2 °F 71% 30.09 in 10.0 mi SSW 9.2 mph - N/A   Mostly Cloudy
3:53 PM 46.0 °F 40.6 °F 39.9 °F 79% 30.14 in 10.0 mi SSW 11.5 mph - N/A   Overcast
4:53 PM 45.0 °F 38.9 °F 39.9 °F 82% 30.14 in 10.0 mi SSE 12.7 mph - 0.00 in   Overcast
5:53 PM 45.0 °F 39.7 °F 39.9 °F 82% 30.15 in 10.0 mi SSE 10.4 mph - N/A   Overcast
6:53 PM 45.0 °F 39.7 °F 41.0 °F 86% 30.14 in 10.0 mi SE 10.4 mph - 0.06 in Rain Light Rain
7:53 PM 44.1 °F 38.6 °F 41.0 °F 89% 30.14 in 10.0 mi SE 10.4 mph - 0.00 in   Mostly Cloudy
8:53 PM 44.1 °F 38.1 °F 39.9 °F 85% 30.10 in 10.0 mi SE 11.5 mph - N/A   Overcast
9:53 PM 44.1 °F 38.6 °F 39.0 °F 82% 30.09 in 10.0 mi SSE 10.4 mph - N/A   Overcast
10:53 PM 44.1 °F 40.1 °F 37.9 °F 79% 30.09 in 10.0 mi SSE 6.9 mph - N/A   Overcast
11:53 PM 44.1 °F 37.4 °F 37.9 °F 79% 30.04 in 10.0 mi SE 13.8 mph - N/A   Overcast